Location: Fontenoy
(49.4072°N, 3.2008°E)
Time: 21:28:21
(UTC+00:00)

Cosmos 1461 - Pass Details

Date: 15 May 2026
Orbit: 422 x 475 km, 65.0° (Epoch: 10 June)

Event Time Altitude Azimuth Distance (km) Brightness Sun altitude
Rises 21:22:20 0° 233° (SW) 2,533 6.2 -14.7°
Reaches altitude 10° 21:24:32 10° 240° (WSW) 1,655 5.3 -14.9°
Maximum altitude 21:28:06 46° 315° (NW) 655 3.7 -15.3°
Drops below altitude 10° 21:31:40 10° 30° (NNE) 1,649 5.6 -15.6°
Sets 21:33:51 0° 36° (NE) 2,522 6.5 -15.8°
